Regional Weather Roundup
Issued by NWS

Home | Current Version | Previous Version | Graphics & Text | Print | Product List | Glossary On
Versions: 1 2 3 4 5 6 7 8 9 10 11 12 13 14 15 16 17 18 19 20 21 22 23 24 25 26 27 28 29 30 31 32 33 34 35 36 37 38 39 40 41 42 43 44 45 46 47 48 49 50
000
ASUS43 KDTX 310810
RWRMI
MICHIGAN HOURLY REGIONAL WEATHER ROUNDUP
NATIONAL WEATHER SERVICE DETROIT/PONTIAC MI
400 AM EDT FRI JUL 31 2015

NOTE: "FAIR" INDICATES FEW OR NO CLOUDS BELOW 12,000 FEET WITH NO
SIGNIFICANT WEATHER AND/OR OBSTRUCTION TO VISIBILITY.

MIZ047>049-052>055-059>063-066>070-074>076-081>083-310900-
SOUTHEAST LOWER MICHIGAN

CITY           SKY/WX    TMP DP  RH WIND       PRES   REMARKS
ADRIAN         CLEAR     66  58  75 W10       29.99S
ALMA           CLEAR     63  60  90 SW3       29.94S
ANN ARBOR      CLEAR     63  57  81 W7        29.96S
BAD AXE        CLEAR     61  58  90 SW5       29.91S
CARO           CLEAR     61  58  90 SW3       29.92S
DETROIT CITY   CLEAR     70  57  63 W7        29.94S
DETROIT        PTCLDY    67  59  75 SW6       29.96S
FLINT          CLEAR     66  58  75 SW6       29.94S
GROSSE ILE     CLEAR     70  61  73 W5        29.94S
HILLSDALE      CLEAR     68  57  67 W5        30.00S
HOWELL         CLEAR     63  58  83 SW6       29.96S

CITY           SKY/WX    TMP DP  RH WIND       PRES   REMARKS
JACKSON        CLEAR     64  58  80 W5        29.99R
LAMBERTVILLE   CLEAR     68  58  69 W3        29.98S
LANSING        CLEAR     66  58  75 W7        29.97S
LAPEER         FAIR      65  59  80 CALM      29.94S
MASON          CLEAR     62  57  81 CALM      29.97S
MONROE         CLEAR     65  59  81 W5        29.95F
MT. CLEMENS    CLEAR     70  59  67 W8        29.91F
PONTIAC        CLEAR     66  58  75 W6        29.95S
PORT HOPE        N/A     65  59  81 SW5       29.87F
PORT HURON     CLEAR     63  59  88 CALM      29.92F
TRI CITIES     CLEAR     66  59  78 SW9       29.92F
MIDLAND        FAIR      61  56  84 CALM      29.91F
TROY           CLEAR     71  57  62 W6        29.96S
SAGINAW HB     CLEAR     64  59  82 SW8       29.92S
$$
MIZ043>046-050>051-056>058-064>065-071>073-077>080-310900-
SOUTHWEST LOWER MICHIGAN

CITY           SKY/WX    TMP DP  RH WIND       PRES   REMARKS
BATTLE CREEK   CLEAR     67  58  72 SW5       30.00R
BENTON HARBOR  CLEAR     72  62  71 W8        30.00R
BIG RAPIDS     CLEAR     60  58  91 CALM      29.94S
COLDWATER      CLEAR     62  57  83 W6        30.00S
FREMONT        FAIR      59  59  99 CALM      29.95S
HOLLAND        CLEAR     68  62  81 W6        29.99R
GRAND RAPIDS   CLEAR     67  59  75 SW7       29.97S
IONIA          FAIR      64  59  82 W6        29.96R
KALAMAZOO      CLEAR     66  58  75 CALM      30.00R
LUDINGTON      CLEAR     68  64  86 SW3       29.93S
MARSHALL       CLEAR     64  58  81 CALM      29.99S
MOUNT PLEASANT CLEAR     65  59  82 W3        29.92F
MUSKEGON         N/A     66  60  81 W5        29.96S
SOUTH HAVEN    MOCLDY    72  62  71 W7        29.99S
$$
MIZ016>042-310900-
NORTHERN LOWER MICHIGAN

CITY           SKY/WX    TMP DP  RH WIND       PRES   REMARKS
ALPENA         CLEAR     61  54  77 S6        29.86S
BEAVER ISLAND  PTCLDY    67  62  86 SW9       29.84F
BELLAIRE       CLEAR     65  58  79 CALM      29.88S
CADILLAC       CLEAR     55  54  95 CALM      29.93S
CHARLEVOIX     MOCLDY    69  61  75 SW10      29.88S
FRANKFORT      CLEAR     69  63  81 W5        29.89F
GAYLORD        PTCLDY    62  56  80 W7        29.90S
GRAYLING       PTCLDY    63  56  80 SW5       29.91S
HARBOR SPRINGS CLEAR     65  60  83 SW5       29.85F
HOUGHTON LAKE  CLEAR     67  58  72 W7        29.92F
MANISTEE       CLEAR     57  54  88 E3        29.92S
OSCODA         CLEAR     61  60  98 SW3       29.88S
PELLSTON       CLEAR     54  50  86 CALM      29.85S
ROGERS CITY    CLEAR     62  55  80 SW7       29.85S
TRAVERSE CITY  CLEAR     67  58  72 SW6       29.87F
$$
MIZ007>008-015-310900-
EASTERN UPPER MICHIGAN

CITY           SKY/WX    TMP DP  RH WIND       PRES   REMARKS
KINROSS        PTCLDY    61  57  88 CALM      29.82S
MACKINAC ISLAN CLEAR     66  61  83 W9        29.83S
MUNISING         N/A     66  57  72 SW8       29.81S
$$
MIZ004>006-011>014-085-310900-
CENTRAL UPPER MICHIGAN

CITY           SKY/WX    TMP DP  RH WIND       PRES   REMARKS
MANISTIQUE     CLEAR     63  57  82 SW3       29.83R
ESCANABA       CLEAR     61  57  88 W7        29.85S
MENOMINEE      CLEAR     64  55  72 W6        29.88S
SAWYER-GWINN   CLEAR     60  55  85 W5        29.86S
$$
MIZ001>003-009>011-084-310900-
WESTERN UPPER MICHIGAN

CITY           SKY/WX    TMP DP  RH WIND       PRES   REMARKS
IRON MOUNTAIN  CLEAR     62  56  80 W5        29.88S
HOUGHTON       CLEAR     61  54  77 W9        29.82S
COPPER HARBOR    N/A     65  53  65 VRB7G16   29.78F
IRONWOOD       CLEAR     63  55  77 W9        29.88R
$$

ABBREVIATIONS USED IN REMARKS
   TC - TEMPERATURE IN CELSIUS
  WCI - WIND CHILL INDEX
   HX - HEAT INDEX
  VSB - VISIBILITY




USA.gov is the U.S. government's official web portal to all federal, state and local government web resources and services.